Regional Weather Roundup
Issued by NWS Huntsville, AL

Home | Current Version | Previous Version | Text Only | Print | Product List | Glossary On
Versions: 1 2 3 4 5 6 7 8 9 10 11 12 13 14 15 16 17 18 19 20 21 22 23 24 25 26 27 28 29 30 31 32 33 34 35 36 37 38 39 40 41 42 43 44 45 46 47 48 49 50
000
ASUS44 KHUN 290010
RWRHUN

WEATHER ROUNDUP FOR THE TENNESSEE VALLEY
NATIONAL WEATHER SERVICE HUNTSVILLE AL
700 PM CDT THU AUG 28 2014

ALZ001>004-290100-
NORTHWEST ALABAMA

CITY           SKY/WX    TMP DP  RH WIND       PRES   REMARKS
SHOALS AIRPORT MOCLDY    85  66  53 CALM      29.97R
6HR MIN TEMP:  85; 6HR MAX TEMP:  95;

SHOALS TVA RES   N/A     88 N/A N/A MISG        N/A
$$

ALZ005>007-016-290100-
NORTH CENTRAL ALABAMA

CITY           SKY/WX    TMP DP  RH WIND       PRES   REMARKS
DECATUR AP     CLEAR     87  66  49 E3        29.97R
6HR MIN TEMP:  87; 6HR MAX TEMP:  95;

HUNTSVILLE AP  PTCLDY    88  64  44 SE5       29.97R
6HR MIN TEMP:  88; 6HR MAX TEMP:  95;

HUN NWS/UAH      N/A     87  59  38 S2          N/A
MERIDIANVILLE  CLEAR     82  63  51 E3        29.99R
VINEMONT AP    FAIR      86  65  49 N3        30.01R
$$

ALZ008>010-290100-
NORTHEAST ALABAMA

CITY           SKY/WX    TMP DP  RH WIND       PRES   REMARKS
ALBERTVILLE    CLEAR     84  68  58 E3        29.98S
FORT PAYNE     CLEAR     79  59  50 CALM      29.99R
SCOTTSBORO AP  CLEAR     82  72  69 CALM      29.98S
SCOTTSBORO HCN   N/A     82 N/A N/A MISG        N/A
VALLEY HEAD      N/A     77 N/A N/A MISG        N/A
$$

TNZ076-096-097-290100-
SOUTHEASTERN MIDDLE TENNESSEE

CITY           SKY/WX    TMP DP  RH WIND       PRES   REMARKS
FAYETTEVILLE   CLEAR     82  64  54 SE3       30.00R
TULLAHOMA      CLEAR     84  66  54 CALM      30.03R
WINCHESTER     CLEAR     84  70  61 CALM      30.01R
$$

...SURROUNDING SITES...

CITY           SKY/WX    TMP DP  RH WIND       PRES   REMARKS
ATLANTA        PTCLDY    87  53  31 SE3       29.99F
ANNISTON       CLEAR     84  62  47 SE3       29.97S
BIRMINGHAM     PTCLDY    89  50  26 E3        29.98S
CHATTANOOGA    PTCLDY    88  63  43 CALM      29.98S
CORINTH        FAIR      86  72  62 CALM      29.95R HX  92
DALTON         CLEAR     79  68  69 CALM      29.99R
GADSDEN        CLEAR     88  57  35 CALM      29.96S
GOLDEN TRNGL   PTCLDY    90  61  37 SE7       29.94S
HALEYVILLE     FAIR      82  63  52 CALM      30.00R
JACKSON TN     CLEAR     85  74  69 CALM      29.95S HX  92
LEWISBURG      FAIR      87  70  57 CALM      29.98R HX  92
MEMPHIS        PTCLDY    88  62  41 VRB6      29.94S
MURFREESBORO   FAIR      88  71  56 NE5       29.97R HX  93
NASHVILLE      MOCLDY    85  70  60 NW8       29.98R
ROME           CLEAR     85  61  44 S3        29.97S
SAVANNAH       CLEAR     84  77  79 CALM      29.97R HX  94
TUPELO         CLEAR     89  62  40 NE3       29.94S
TUSCALOOSA     PTCLDY    88  61  40 SW5       29.93S
$$

...GULF COAST WEATHER...

CITY           SKY/WX    TMP DP  RH WIND       PRES   REMARKS
GULFPORT       MOCLDY    86  71  60 E9        29.93S HX  91
PASCAGOULA     PTCLDY    78  72  81 S3        29.93F
MOBILE         MOCLDY    77  74  90 CALM      29.94S
GULF SHORES    MOCLDY    83  71  68 CALM      29.94S
PENSACOLA      MOCLDY    83  72  69 SE7       29.93F
DESTIN         PTCLDY    86  67  52 SE7       29.94S
PANAMA CITY    MOCLDY    84  72  67 S8        29.95S HX  90
APPALACHICOLA  PTCLDY    83  70  64 SE6       29.95S
$$




USA.gov is the U.S. government's official web portal to all federal, state and local government web resources and services.